Time,TemperatureF,DewpointF,PressureIn,WindDirection,WindDirectionDegrees,WindSpeedMPH,WindSpeedGustMPH,Humidity,HourlyPrecipIn,Conditions,Clouds,dailyrainin,SoftwareType,DateUTC
2013-09-29 00:04:00,62.8,27.4,29.38,SSW,202,3.5,3.5,26,0.00,CLR,OVC,0.00,WeatherDisplay:10.37,2013-09-28 14:04:00,
2013-09-29 00:09:00,62.6,28.1,29.38,South,180,1.2,1.2,27,0.00,CLR,OVC,0.00,WeatherDisplay:10.37,2013-09-28 14:09:00,
2013-09-29 00:14:00,62.4,28.0,29.38,South,180,1.4,1.4,27,0.00,CLR,OVC,0.00,WeatherDisplay:10.37,2013-09-28 14:14:00,
2013-09-29 00:19:00,62.2,27.8,29.38,South,180,2.3,2.3,27,0.00,CLR,OVC,0.00,WeatherDisplay:10.37,2013-09-28 14:19:00,
2013-09-29 00:24:00,62.2,27.8,29.38,SW,225,0.0,0.0,27,0.00,CLR,OVC,0.00,WeatherDisplay:10.37,2013-09-28 14:24:00,
2013-09-29 00:29:00,62.1,28.5,29.38,SSW,202,1.2,0.0,28,0.00,CLR,OVC,0.00,WeatherDisplay:10.37,2013-09-28 14:29:00,
2013-09-29 00:34:00,61.9,28.4,29.38,WSW,248,1.2,1.2,28,0.00,CLR,OVC,0.00,WeatherDisplay:10.37,2013-09-28 14:34:00,
2013-09-29 00:39:00,61.9,28.4,29.38,West,270,0.0,0.0,28,0.00,CLR,OVC,0.00,WeatherDisplay:10.37,2013-09-28 14:39:00,
2013-09-29 00:44:00,61.7,29.1,29.38,West,270,2.3,2.3,29,0.00,CLR,OVC,0.00,WeatherDisplay:10.37,2013-09-28 14:44:00,
2013-09-29 00:49:00,61.7,29.1,29.38,WSW,248,1.2,1.2,29,0.00,CLR,OVC,0.00,WeatherDisplay:10.37,2013-09-28 14:49:00,
2013-09-29 00:54:00,61.5,28.9,29.38,SSW,202,1.2,1.2,29,0.00,CLR,OVC,0.00,WeatherDisplay:10.37,2013-09-28 14:54:00,
2013-09-29 00:59:00,61.3,28.8,29.38,SSW,202,2.3,2.3,29,0.00,CLR,OVC,0.00,WeatherDisplay:10.37,2013-09-28 14:59:00,
2013-09-29 01:04:00,61.3,28.8,29.38,SSE,158,2.3,2.3,29,0.00,CLR,OVC,0.00,WeatherDisplay:10.37,2013-09-28 15:04:00,
2013-09-29 01:09:00,61.2,29.5,29.38,South,180,2.3,2.3,30,0.00,CLR,OVC,0.00,WeatherDisplay:10.37,2013-09-28 15:09:00,
2013-09-29 01:14:00,61.0,30.1,29.38,NW,315,1.2,0.0,31,0.00,CLR,OVC,0.00,WeatherDisplay:10.37,2013-09-28 15:14:00,
2013-09-29 01:19:00,60.8,29.9,29.38,West,270,2.4,0.0,31,0.00,CLR,OVC,0.00,WeatherDisplay:10.37,2013-09-28 15:19:00,
2013-09-29 01:24:00,60.6,30.6,29.38,WNW,292,1.2,0.0,32,0.00,CLR,OVC,0.00,WeatherDisplay:10.37,2013-09-28 15:24:00,
2013-09-29 01:29:00,60.6,31.3,29.35,WSW,248,2.3,2.3,33,0.00,CLR,OVC,0.00,WeatherDisplay:10.37,2013-09-28 15:29:00,
2013-09-29 01:34:00,60.4,31.2,29.35,ESE,112,0.0,0.0,33,0.00,CLR,OVC,0.00,WeatherDisplay:10.37,2013-09-28 15:34:00,
2013-09-29 01:39:00,60.3,31.8,29.35,South,180,2.3,2.3,34,0.00,CLR,OVC,0.00,WeatherDisplay:10.37,2013-09-28 15:39:00,
2013-09-29 01:44:00,60.4,31.9,29.35,WSW,248,1.2,1.2,34,0.00,CLR,OVC,0.00,WeatherDisplay:10.37,2013-09-28 15:44:00,
2013-09-29 01:49:00,60.6,32.1,29.35,SSE,158,1.2,0.0,34,0.00,CLR,OVC,0.00,WeatherDisplay:10.37,2013-09-28 15:49:00,
2013-09-29 01:54:00,60.6,32.1,29.35,East,90,0.0,0.0,34,0.00,CLR,OVC,0.00,WeatherDisplay:10.37,2013-09-28 15:54:00,
2013-09-29 01:59:00,60.6,32.1,29.35,NNW,338,0.0,0.0,34,0.00,CLR,OVC,0.00,WeatherDisplay:10.37,2013-09-28 15:59:00,
2013-09-29 02:04:00,60.6,32.1,29.35,WNW,292,2.9,2.9,34,0.00,CLR,OVC,0.00,WeatherDisplay:10.37,2013-09-28 16:04:00,
2013-09-29 02:09:00,60.6,32.1,29.35,WSW,248,3.5,3.5,34,0.00,CLR,OVC,0.00,WeatherDisplay:10.37,2013-09-28 16:09:00,
2013-09-29 02:14:00,60.4,31.9,29.38,SW,225,0.0,0.0,34,0.00,CLR,OVC,0.00,WeatherDisplay:10.37,2013-09-28 16:14:00,
2013-09-29 02:19:00,60.4,31.9,29.38,WSW,248,1.2,0.0,34,0.00,CLR,OVC,0.00,WeatherDisplay:10.37,2013-09-28 16:19:00,
2013-09-29 02:24:00,60.4,31.9,29.38,WSW,248,0.0,0.0,34,0.00,CLR,OVC,0.00,WeatherDisplay:10.37,2013-09-28 16:24:00,
2013-09-29 02:29:00,60.4,31.9,29.38,NW,315,2.3,2.3,34,0.00,CLR,OVC,0.00,WeatherDisplay:10.37,2013-09-28 16:29:00,
2013-09-29 02:34:00,60.3,31.8,29.38,South,180,2.9,2.9,34,0.00,CLR,OVC,0.00,WeatherDisplay:10.37,2013-09-28 16:34:00,
2013-09-29 02:39:00,60.4,32.6,29.38,ESE,112,2.3,2.3,35,0.00,CLR,OVC,0.00,WeatherDisplay:10.37,2013-09-28 16:39:00,
2013-09-29 02:44:00,60.3,32.5,29.38,SW,225,0.0,0.0,35,0.00,CLR,OVC,0.00,WeatherDisplay:10.37,2013-09-28 16:44:00,
2013-09-29 02:49:00,60.1,32.3,29.38,SSW,202,1.4,1.4,35,0.00,CLR,OVC,0.00,WeatherDisplay:10.37,2013-09-28 16:49:00,
2013-09-29 02:54:00,60.1,32.3,29.38,SE,135,0.0,0.0,35,0.00,CLR,OVC,0.00,WeatherDisplay:10.37,2013-09-28 16:54:00,
2013-09-29 03:00:00,59.9,32.2,29.38,West,270,0.0,0.0,35,0.00,CLR,OVC,0.00,WeatherDisplay:10.37,2013-09-28 17:00:00,
2013-09-29 03:05:00,59.9,32.2,29.38,ESE,112,0.0,0.0,35,0.00,CLR,OVC,0.00,WeatherDisplay:10.37,2013-09-28 17:05:00,
2013-09-29 03:10:00,59.5,31.8,29.38,South,180,0.0,0.0,35,0.00,CLR,OVC,0.00,WeatherDisplay:10.37,2013-09-28 17:10:00,
2013-09-29 03:15:00,59.4,31.7,29.38,ENE,68,2.3,0.0,35,0.00,CLR,OVC,0.00,WeatherDisplay:10.37,2013-09-28 17:15:00,
2013-09-29 03:20:00,59.4,31.7,29.38,SW,225,3.5,3.5,35,0.00,CLR,OVC,0.00,WeatherDisplay:10.37,2013-09-28 17:20:00,
2013-09-29 03:25:00,59.2,32.2,29.38,North,0,1.2,0.0,36,0.00,CLR,OVC,0.00,WeatherDisplay:10.37,2013-09-28 17:25:00,
2013-09-29 03:30:00,58.8,31.9,29.38,WNW,292,3.5,3.5,36,0.00,CLR,OVC,0.00,WeatherDisplay:10.37,2013-09-28 17:30:00,
2013-09-29 03:35:00,58.8,31.9,29.38,SSW,202,1.2,1.2,36,0.00,CLR,OVC,0.00,WeatherDisplay:10.37,2013-09-28 17:35:00,
2013-09-29 03:40:00,58.6,31.7,29.38,ENE,68,2.4,2.4,36,0.00,CLR,OVC,0.00,WeatherDisplay:10.37,2013-09-28 17:40:00,
2013-09-29 03:45:00,58.3,32.1,29.41,NE,45,2.3,2.3,37,0.00,CLR,OVC,0.00,WeatherDisplay:10.37,2013-09-28 17:45:00,
2013-09-29 03:50:00,58.1,31.9,29.41,East,90,0.0,0.0,37,0.00,CLR,OVC,0.00,WeatherDisplay:10.37,2013-09-28 17:50:00,
2013-09-29 03:55:00,57.9,31.8,29.41,SSW,202,2.6,2.6,37,0.00,CLR,OVC,0.00,WeatherDisplay:10.37,2013-09-28 17:55:00,
2013-09-29 04:00:00,57.7,32.3,29.41,SSW,201,0.0,3.0,38,0.00,CLR,OVC,0.00,WeatherDisplay:10.37,2013-09-28 18:00:00,
2013-09-29 04:05:00,57.6,32.1,29.41,WSW,248,3.5,3.5,38,0.00,CLR,OVC,0.00,WeatherDisplay:10.37,2013-09-28 18:05:00,
2013-09-29 04:10:00,57.4,31.3,29.41,WSW,248,3.5,3.5,37,0.00,CLR,OVC,0.00,WeatherDisplay:10.37,2013-09-28 18:10:00,
2013-09-29 04:15:00,57.4,31.9,29.44,WSW,256,1.0,4.0,38,0.00,CLR,OVC,0.00,WeatherDisplay:10.37,2013-09-28 18:15:00,
2013-09-29 04:20:00,57.2,31.8,29.44,South,180,4.6,4.6,38,0.00,CLR,OVC,0.00,WeatherDisplay:10.37,2013-09-28 18:20:00,
2013-09-29 04:25:00,57.2,31.8,29.44,SSW,202,1.2,1.2,38,0.00,CLR,OVC,0.00,WeatherDisplay:10.37,2013-09-28 18:25:00,
2013-09-29 04:30:00,57.0,32.3,29.47,SSW,195,0.0,5.0,39,0.00,CLR,OVC,0.00,WeatherDisplay:10.37,2013-09-28 18:30:00,
2013-09-29 04:35:00,56.8,32.1,29.47,East,90,0.0,0.0,39,0.00,CLR,OVC,0.00,WeatherDisplay:10.37,2013-09-28 18:35:00,
2013-09-29 04:40:00,56.5,32.4,29.47,ESE,112,2.3,2.3,40,0.00,CLR,OVC,0.00,WeatherDisplay:10.37,2013-09-28 18:40:00,
2013-09-29 04:45:00,56.3,32.3,29.44,SE,135,0.0,0.0,40,0.00,CLR,OVC,0.00,WeatherDisplay:10.37,2013-09-28 18:45:00,
2013-09-29 04:50:00,56.1,32.1,29.44,SSW,202,0.0,0.0,40,0.00,CLR,OVC,0.00,WeatherDisplay:10.37,2013-09-28 18:50:00,
2013-09-29 04:55:00,55.9,31.9,29.44,SSW,202,1.2,0.0,40,0.00,CLR,OVC,0.00,WeatherDisplay:10.37,2013-09-28 18:55:00,
2013-09-29 05:00:00,55.9,31.9,29.44,WNW,292,0.0,0.0,40,0.00,CLR,OVC,0.00,WeatherDisplay:10.37,2013-09-28 19:00:00,
2013-09-29 05:05:00,55.9,31.9,29.44,SSW,202,0.0,0.0,40,0.00,CLR,OVC,0.00,WeatherDisplay:10.37,2013-09-28 19:05:00,
2013-09-29 05:10:00,55.8,32.4,29.44,NNW,338,0.0,0.0,41,0.00,CLR,OVC,0.00,WeatherDisplay:10.37,2013-09-28 19:10:00,
2013-09-29 05:15:00,55.4,31.5,29.47,West,270,2.3,2.3,40,0.00,CLR,OVC,0.00,WeatherDisplay:10.37,2013-09-28 19:15:00,
2013-09-29 05:20:00,55.0,32.3,29.47,SE,135,2.3,2.3,42,0.00,CLR,OVC,0.00,WeatherDisplay:10.37,2013-09-28 19:20:00,
2013-09-29 05:25:00,54.9,32.8,29.47,NE,45,0.0,0.0,43,0.00,CLR,OVC,0.00,WeatherDisplay:10.37,2013-09-28 19:25:00,
2013-09-29 05:30:00,54.5,32.4,29.47,West,270,0.0,0.0,43,0.00,CLR,OVC,0.00,WeatherDisplay:10.37,2013-09-28 19:30:00,
2013-09-29 05:35:00,54.3,32.3,29.47,SE,135,0.0,0.0,43,0.00,CLR,OVC,0.00,WeatherDisplay:10.37,2013-09-28 19:35:00,
2013-09-29 05:40:00,54.1,32.1,29.47,SE,135,0.0,0.0,43,0.00,CLR,OVC,0.00,WeatherDisplay:10.37,2013-09-28 19:40:00,
2013-09-29 05:45:00,54.1,32.1,29.47,West,270,0.0,0.0,43,0.00,CLR,OVC,0.00,WeatherDisplay:10.37,2013-09-28 19:45:00,
2013-09-29 05:50:00,54.0,33.1,29.47,East,90,0.0,0.0,45,0.00,CLR,OVC,0.00,WeatherDisplay:10.37,2013-09-28 19:50:00,
2013-09-29 05:55:00,53.8,32.9,29.47,East,90,0.0,0.0,45,0.00,CLR,OVC,0.00,WeatherDisplay:10.37,2013-09-28 19:55:00,
2013-09-29 06:00:00,53.6,32.8,29.50,ESE,112,0.0,0.0,45,0.00,CLR,OVC,0.00,WeatherDisplay:10.37,2013-09-28 20:00:00,
2013-09-29 06:05:00,53.6,32.8,29.50,NNE,22,0.0,0.0,45,0.00,CLR,OVC,0.00,WeatherDisplay:10.37,2013-09-28 20:05:00,
2013-09-29 06:10:00,53.4,33.1,29.50,NE,45,0.0,0.0,46,0.00,CLR,OVC,0.00,WeatherDisplay:10.37,2013-09-28 20:10:00,
2013-09-29 06:15:00,53.4,33.7,29.47,WNW,292,0.0,0.0,47,0.00,CLR,OVC,0.00,WeatherDisplay:10.37,2013-09-28 20:15:00,
2013-09-29 06:21:00,53.6,33.3,29.47,ESE,112,0.0,0.0,46,0.00,CLR,OVC,0.00,WeatherDisplay:10.37,2013-09-28 20:21:00,
2013-09-29 06:26:00,53.6,33.8,29.47,East,90,0.0,0.0,47,0.00,CLR,OVC,0.00,WeatherDisplay:10.37,2013-09-28 20:26:00,
2013-09-29 06:31:00,53.8,34.5,29.47,NE,45,0.0,0.0,48,0.00,CLR,OVC,0.00,WeatherDisplay:10.37,2013-09-28 20:31:00,
2013-09-29 06:36:00,53.8,34.5,29.47,NW,315,0.0,0.0,48,0.00,CLR,OVC,0.00,WeatherDisplay:10.37,2013-09-28 20:36:00,
2013-09-29 06:41:00,53.8,34.5,29.47,NNW,338,0.0,0.0,48,0.00,CLR,OVC,0.00,WeatherDisplay:10.37,2013-09-28 20:41:00,
2013-09-29 06:46:00,53.8,34.0,29.50,NNW,338,0.0,0.0,47,0.00,CLR,OVC,0.00,WeatherDisplay:10.37,2013-09-28 20:46:00,
2013-09-29 06:51:00,54.0,34.2,29.50,NW,315,0.0,0.0,47,0.00,CLR,OVC,0.00,WeatherDisplay:10.37,2013-09-28 20:51:00,
2013-09-29 06:56:00,54.1,34.9,29.50,NW,315,0.0,0.0,48,0.00,CLR,OVC,0.00,WeatherDisplay:10.37,2013-09-28 20:56:00,
2013-09-29 07:01:00,54.3,35.0,29.50,NE,45,0.0,0.0,48,0.00,CLR,OVC,0.00,WeatherDisplay:10.37,2013-09-28 21:01:00,
2013-09-29 07:07:00,54.7,35.9,29.50,NNW,338,0.0,0.0,49,0.00,CLR,OVC,0.00,WeatherDisplay:10.37,2013-09-28 21:07:00,
2013-09-29 07:12:00,54.9,36.0,29.50,WNW,292,0.0,0.0,49,0.00,CLR,OVC,0.00,WeatherDisplay:10.37,2013-09-28 21:12:00,
2013-09-29 07:17:00,55.2,36.4,29.53,WNW,292,0.0,0.0,49,0.00,CLR,OVC,0.00,WeatherDisplay:10.37,2013-09-28 21:17:00,
2013-09-29 07:22:00,55.8,36.9,29.53,WNW,292,0.0,0.0,49,0.00,CLR,OVC,0.00,WeatherDisplay:10.37,2013-09-28 21:22:00,
2013-09-29 07:27:00,55.9,37.6,29.53,WNW,292,0.0,0.0,50,0.00,CLR,OVC,0.00,WeatherDisplay:10.37,2013-09-28 21:27:00,
2013-09-29 07:32:00,56.5,38.1,29.53,NNW,338,1.2,1.2,50,0.00,CLR,OVC,0.00,WeatherDisplay:10.37,2013-09-28 21:32:00,
2013-09-29 07:37:00,56.8,38.4,29.53,NNW,338,1.2,1.2,50,0.00,CLR,OVC,0.00,WeatherDisplay:10.37,2013-09-28 21:37:00,
2013-09-29 07:42:00,57.2,38.7,29.53,NNE,22,1.4,0.0,50,0.00,CLR,OVC,0.00,WeatherDisplay:10.37,2013-09-28 21:42:00,
2013-09-29 07:47:00,57.9,39.4,29.53,NNW,338,1.2,1.2,50,0.00,CLR,OVC,0.00,WeatherDisplay:10.37,2013-09-28 21:47:00,
2013-09-29 07:52:00,58.6,40.0,29.53,North,0,1.4,1.4,50,0.00,CLR,OVC,0.00,WeatherDisplay:10.37,2013-09-28 21:52:00,
2013-09-29 07:57:00,59.4,40.2,29.53,NW,315,1.6,0.0,49,0.00,CLR,OVC,0.00,WeatherDisplay:10.37,2013-09-28 21:57:00,
2013-09-29 08:02:00,60.3,41.0,29.50,NW,315,1.2,1.4,49,0.00,CLR,OVC,0.00,WeatherDisplay:10.37,2013-09-28 22:02:00,
2013-09-29 08:07:00,62.1,41.6,29.50,NNW,338,2.3,2.3,47,0.00,CLR,OVC,0.00,WeatherDisplay:10.37,2013-09-28 22:07:00,
2013-09-29 08:12:00,64.0,42.3,29.50,WNW,292,2.4,2.4,45,0.00,CLR,OVC,0.00,WeatherDisplay:10.37,2013-09-28 22:12:00,
2013-09-29 08:17:00,66.0,42.9,29.53,WNW,292,2.2,2.2,43,0.00,CLR,OVC,0.00,WeatherDisplay:10.37,2013-09-28 22:17:00,
2013-09-29 08:22:00,67.1,42.6,29.53,NNW,338,3.5,3.5,41,0.00,CLR,OVC,0.00,WeatherDisplay:10.37,2013-09-28 22:22:00,
2013-09-29 08:27:00,68.5,42.6,29.53,NE,45,3.5,3.5,39,0.00,CLR,OVC,0.00,WeatherDisplay:10.37,2013-09-28 22:27:00,
2013-09-29 08:32:00,69.3,41.9,29.50,NW,315,5.8,5.8,37,0.00,CLR,OVC,0.00,WeatherDisplay:10.37,2013-09-28 22:32:00,
2013-09-29 08:37:00,70.3,41.4,29.50,WNW,292,4.6,4.6,35,0.00,CLR,OVC,0.00,WeatherDisplay:10.37,2013-09-28 22:37:00,
2013-09-29 08:42:00,71.2,41.4,29.50,NNW,338,4.6,4.6,34,0.00,CLR,OVC,0.00,WeatherDisplay:10.37,2013-09-28 22:42:00,
2013-09-29 08:47:00,72.1,41.4,29.50,WNW,292,3.6,3.6,33,0.00,CLR,OVC,0.00,WeatherDisplay:10.37,2013-09-28 22:47:00,
2013-09-29 08:52:00,72.5,41.0,29.50,WNW,292,3.5,3.5,32,0.00,CLR,OVC,0.00,WeatherDisplay:10.37,2013-09-28 22:52:00,
2013-09-29 08:57:00,73.2,41.6,29.50,NNW,338,2.3,2.3,32,0.00,CLR,OVC,0.00,WeatherDisplay:10.37,2013-09-28 22:57:00,
2013-09-29 09:02:00,73.8,41.2,29.50,NNE,22,3.5,3.5,31,0.00,CLR,OVC,0.00,WeatherDisplay:10.37,2013-09-28 23:02:00,
2013-09-29 09:07:00,74.1,41.5,29.50,NW,315,2.3,2.3,31,0.00,CLR,OVC,0.00,WeatherDisplay:10.37,2013-09-28 23:07:00,
2013-09-29 09:12:00,75.4,42.6,29.50,West,270,4.6,4.6,31,0.00,CLR,OVC,0.00,WeatherDisplay:10.37,2013-09-28 23:12:00,
2013-09-29 09:17:00,75.7,41.2,29.50,NW,315,1.6,1.6,29,0.00,CLR,OVC,0.00,WeatherDisplay:10.37,2013-09-28 23:17:00,
2013-09-29 09:22:00,76.6,42.0,29.50,NW,315,4.6,4.6,29,0.00,CLR,OVC,0.00,WeatherDisplay:10.37,2013-09-28 23:22:00,
2013-09-29 09:27:00,77.4,40.8,29.50,NNW,338,4.6,4.6,27,0.00,CLR,OVC,0.00,WeatherDisplay:10.37,2013-09-28 23:27:00,
2013-09-29 09:32:00,77.4,40.8,29.50,NE,45,3.5,3.5,27,0.00,CLR,OVC,0.00,WeatherDisplay:10.37,2013-09-28 23:32:00,
2013-09-29 09:37:00,78.1,40.4,29.50,ENE,68,3.5,3.5,26,0.00,CLR,OVC,0.00,WeatherDisplay:10.37,2013-09-28 23:37:00,
2013-09-29 09:42:00,78.8,40.0,29.50,West,270,2.3,2.3,25,0.00,CLR,OVC,0.00,WeatherDisplay:10.37,2013-09-28 23:42:00,
2013-09-29 09:48:00,79.5,40.6,29.50,SSE,158,2.4,2.4,25,0.00,CLR,OVC,0.00,WeatherDisplay:10.37,2013-09-28 23:48:00,
2013-09-29 09:53:00,79.2,38.2,29.50,WNW,292,3.5,3.5,23,0.00,CLR,OVC,0.00,WeatherDisplay:10.37,2013-09-28 23:53:00,
2013-09-29 09:58:00,79.5,38.5,29.50,NNE,22,2.3,2.3,23,0.00,CLR,OVC,0.00,WeatherDisplay:10.37,2013-09-28 23:58:00,
2013-09-29 10:03:00,80.6,39.4,29.50,NNW,338,2.3,2.3,23,0.00,CLR,OVC,0.00,WeatherDisplay:10.37,2013-09-29 00:03:00,
2013-09-29 10:08:00,81.0,39.7,29.50,NW,315,3.5,3.5,23,0.00,CLR,OVC,0.00,WeatherDisplay:10.37,2013-09-29 00:08:00,
2013-09-29 10:33:00,80.2,37.9,29.47,NNE,22,5.8,5.8,22,0.00,CLR,OVC,0.00,WeatherDisplay:10.37,2013-09-29 00:33:00,
2013-09-29 10:38:00,80.2,37.9,29.47,WNW,292,5.8,5.8,22,0.00,CLR,OVC,0.00,WeatherDisplay:10.37,2013-09-29 00:38:00,
2013-09-29 10:43:00,79.9,37.6,29.44,NW,315,3.5,3.6,22,0.00,CLR,OVC,0.00,WeatherDisplay:10.37,2013-09-29 00:43:00,
2013-09-29 10:48:00,79.5,37.3,29.44,NNW,338,3.5,3.5,22,0.00,CLR,OVC,0.00,WeatherDisplay:10.37,2013-09-29 00:48:00,
2013-09-29 10:53:00,80.2,37.9,29.44,NNE,22,4.6,4.6,22,0.00,CLR,OVC,0.00,WeatherDisplay:10.37,2013-09-29 00:53:00,
2013-09-29 10:58:00,80.4,38.1,29.41,WNW,292,5.6,5.6,22,0.00,CLR,OVC,0.00,WeatherDisplay:10.37,2013-09-29 00:58:00,
2013-09-29 11:03:00,80.4,38.1,29.41,NNE,22,2.9,2.9,22,0.00,CLR,OVC,0.00,WeatherDisplay:10.37,2013-09-29 01:03:00,
2013-09-29 11:08:00,81.0,37.3,29.41,NNW,338,4.6,4.6,21,0.00,CLR,OVC,0.00,WeatherDisplay:10.37,2013-09-29 01:08:00,
2013-09-29 11:13:00,81.3,37.6,29.44,NNE,22,4.6,4.6,21,0.00,CLR,OVC,0.00,WeatherDisplay:10.37,2013-09-29 01:13:00,
2013-09-29 11:18:00,81.1,37.5,29.44,North,0,2.9,2.9,21,0.00,CLR,OVC,0.00,WeatherDisplay:10.37,2013-09-29 01:18:00,
2013-09-29 11:23:00,80.6,37.0,29.44,NW,315,2.9,2.9,21,0.00,CLR,OVC,0.00,WeatherDisplay:10.37,2013-09-29 01:23:00,
2013-09-29 11:28:00,81.1,37.5,29.44,NNW,338,2.3,0.0,21,0.00,CLR,OVC,0.00,WeatherDisplay:10.37,2013-09-29 01:28:00,
2013-09-29 11:33:00,81.3,37.6,29.44,NW,315,3.5,3.5,21,0.00,CLR,OVC,0.00,WeatherDisplay:10.37,2013-09-29 01:33:00,
2013-09-29 11:39:00,81.3,37.6,29.44,WNW,292,2.4,2.4,21,0.00,CLR,OVC,0.00,WeatherDisplay:10.37,2013-09-29 01:39:00,
2013-09-29 11:44:00,81.9,38.1,29.41,NNW,338,3.1,3.1,21,0.00,CLR,OVC,0.00,WeatherDisplay:10.37,2013-09-29 01:44:00,
2013-09-29 11:49:00,82.0,38.2,29.41,South,180,2.4,2.4,21,0.00,CLR,OVC,0.00,WeatherDisplay:10.37,2013-09-29 01:49:00,
2013-09-29 11:54:00,82.6,37.4,29.41,NW,315,2.3,2.4,20,0.00,CLR,OVC,0.00,WeatherDisplay:10.37,2013-09-29 01:54:00,
2013-09-29 11:59:00,82.6,37.4,29.38,NW,315,3.5,3.5,20,0.00,CLR,OVC,0.00,WeatherDisplay:10.37,2013-09-29 01:59:00,
2013-09-29 12:04:00,82.8,37.6,29.38,NNE,22,5.8,5.8,20,0.00,CLR,OVC,0.00,WeatherDisplay:10.37,2013-09-29 02:04:00,
2013-09-29 12:09:00,82.9,37.7,29.38,NNW,338,4.6,4.6,20,0.00,CLR,OVC,0.00,WeatherDisplay:10.37,2013-09-29 02:09:00,
2013-09-29 12:14:00,83.5,38.2,29.35,NNE,22,3.5,3.5,20,0.00,CLR,OVC,0.00,WeatherDisplay:10.37,2013-09-29 02:14:00,
2013-09-29 12:19:00,84.0,38.6,29.35,NNE,22,3.5,3.5,20,0.00,CLR,OVC,0.00,WeatherDisplay:10.37,2013-09-29 02:19:00,
2013-09-29 12:24:00,84.0,38.6,29.35,NE,45,3.8,3.8,20,0.00,CLR,OVC,0.00,WeatherDisplay:10.37,2013-09-29 02:24:00,
2013-09-29 12:29:00,83.5,38.2,29.38,NNW,338,3.5,3.5,20,0.00,CLR,OVC,0.00,WeatherDisplay:10.37,2013-09-29 02:29:00,
2013-09-29 12:34:00,83.3,38.0,29.38,NE,45,2.4,2.4,20,0.00,CLR,OVC,0.00,WeatherDisplay:10.37,2013-09-29 02:34:00,
2013-09-29 12:39:00,83.3,38.0,29.38,WNW,292,2.4,2.4,20,0.00,CLR,OVC,0.00,WeatherDisplay:10.37,2013-09-29 02:39:00,
2013-09-29 12:44:00,83.3,38.0,29.35,NE,45,5.8,5.8,20,0.00,CLR,OVC,0.00,WeatherDisplay:10.37,2013-09-29 02:44:00,
2013-09-29 12:49:00,82.8,37.6,29.35,NNE,22,3.5,3.5,20,0.00,CLR,OVC,0.00,WeatherDisplay:10.37,2013-09-29 02:49:00,
2013-09-29 12:54:00,83.1,37.9,29.35,North,0,4.6,4.6,20,0.00,CLR,OVC,0.00,WeatherDisplay:10.37,2013-09-29 02:54:00,
2013-09-29 12:59:00,82.8,37.6,29.35,NNE,22,4.6,4.6,20,0.00,CLR,OVC,0.00,WeatherDisplay:10.37,2013-09-29 02:59:00,
2013-09-29 13:04:00,82.4,37.3,29.35,NE,45,3.5,3.5,20,0.00,CLR,OVC,0.00,WeatherDisplay:10.37,2013-09-29 03:04:00,
2013-09-29 13:09:00,82.2,37.1,29.35,NNW,338,3.5,3.5,20,0.00,CLR,OVC,0.00,WeatherDisplay:10.37,2013-09-29 03:09:00,
2013-09-29 13:14:00,82.8,37.6,29.35,West,270,8.1,8.1,20,0.00,CLR,OVC,0.00,WeatherDisplay:10.37,2013-09-29 03:14:00,
2013-09-29 13:19:00,83.1,37.9,29.35,North,0,5.8,5.8,20,0.00,CLR,OVC,0.00,WeatherDisplay:10.37,2013-09-29 03:19:00,
2013-09-29 13:25:00,82.8,37.6,29.35,NNE,22,2.3,2.4,20,0.00,CLR,OVC,0.00,WeatherDisplay:10.37,2013-09-29 03:25:00,
2013-09-29 13:30:00,82.2,37.1,29.35,NNE,22,3.5,3.5,20,0.00,CLR,OVC,0.00,WeatherDisplay:10.37,2013-09-29 03:30:00,
2013-09-29 13:35:00,81.9,36.8,29.35,ENE,68,3.5,3.5,20,0.00,CLR,OVC,0.00,WeatherDisplay:10.37,2013-09-29 03:35:00,
2013-09-29 13:40:00,82.6,37.4,29.35,North,0,3.8,3.8,20,0.00,CLR,OVC,0.00,WeatherDisplay:10.37,2013-09-29 03:40:00,
2013-09-29 13:45:00,82.4,37.3,29.32,NNE,22,4.6,4.6,20,0.00,CLR,OVC,0.00,WeatherDisplay:10.37,2013-09-29 03:45:00,
2013-09-29 13:50:00,82.2,37.1,29.32,NNE,22,3.6,3.6,20,0.00,CLR,OVC,0.00,WeatherDisplay:10.37,2013-09-29 03:50:00,
2013-09-29 13:55:00,82.2,37.1,29.32,NNE,22,4.6,4.6,20,0.00,CLR,OVC,0.00,WeatherDisplay:10.37,2013-09-29 03:55:00,
2013-09-29 14:00:00,81.7,36.7,29.32,NNE,22,4.6,4.6,20,0.00,CLR,OVC,0.00,WeatherDisplay:10.37,2013-09-29 04:00:00,
2013-09-29 14:01:00,81.7,36.7,29.32,NNE,22,4.9,4.9,20,0.00,CLR,OVC,0.00,WeatherDisplay:10.37,2013-09-29 04:01:00,
2013-09-29 14:06:00,81.3,36.4,29.32,NE,45,3.5,3.5,20,0.00,CLR,OVC,0.00,WeatherDisplay:10.37,2013-09-29 04:06:00,
2013-09-29 14:11:00,81.0,36.1,29.32,ENE,68,3.3,3.3,20,0.00,CLR,OVC,0.00,WeatherDisplay:10.37,2013-09-29 04:11:00,
2013-09-29 14:16:00,81.3,36.4,29.29,NE,45,3.8,3.8,20,0.00,CLR,OVC,0.00,WeatherDisplay:10.37,2013-09-29 04:16:00,
2013-09-29 14:21:00,80.8,36.0,29.29,NNE,22,3.5,3.5,20,0.00,CLR,OVC,0.00,WeatherDisplay:10.37,2013-09-29 04:21:00,
2013-09-29 14:26:00,81.3,36.4,29.29,North,0,2.9,3.3,20,0.00,CLR,OVC,0.00,WeatherDisplay:10.37,2013-09-29 04:26:00,
2013-09-29 14:31:00,80.6,35.8,29.32,NNE,22,2.4,2.4,20,0.00,CLR,OVC,0.00,WeatherDisplay:10.37,2013-09-29 04:31:00,
2013-09-29 14:36:00,81.0,36.1,29.32,NE,45,2.6,2.6,20,0.00,CLR,OVC,0.00,WeatherDisplay:10.37,2013-09-29 04:36:00,
2013-09-29 14:41:00,80.8,36.0,29.32,NE,45,5.6,5.6,20,0.00,CLR,OVC,0.00,WeatherDisplay:10.37,2013-09-29 04:41:00,
2013-09-29 14:46:00,80.2,36.7,29.35,NE,45,5.8,5.8,21,0.00,CLR,OVC,0.00,WeatherDisplay:10.37,2013-09-29 04:46:00,
2013-09-29 14:51:00,80.1,36.6,29.35,NNE,22,5.8,5.8,21,0.00,CLR,OVC,0.00,WeatherDisplay:10.37,2013-09-29 04:51:00,
2013-09-29 14:56:00,80.1,36.6,29.35,NE,45,4.6,4.6,21,0.00,CLR,OVC,0.00,WeatherDisplay:10.37,2013-09-29 04:56:00,
2013-09-29 15:01:00,80.1,36.6,29.32,NNE,22,3.5,3.5,21,0.00,CLR,OVC,0.00,WeatherDisplay:10.37,2013-09-29 05:01:00,
2013-09-29 15:06:00,80.1,36.6,29.32,NNE,22,4.6,4.6,21,0.00,CLR,OVC,0.00,WeatherDisplay:10.37,2013-09-29 05:06:00,
2013-09-29 15:11:00,79.9,36.4,29.32,NE,45,3.5,3.5,21,0.00,CLR,OVC,0.00,WeatherDisplay:10.37,2013-09-29 05:11:00,
2013-09-29 15:16:00,79.7,36.3,29.35,NE,45,3.1,3.1,21,0.00,CLR,OVC,0.00,WeatherDisplay:10.37,2013-09-29 05:16:00,
2013-09-29 15:21:00,79.7,36.3,29.35,NE,45,4.6,4.6,21,0.00,CLR,OVC,0.00,WeatherDisplay:10.37,2013-09-29 05:21:00,
2013-09-29 15:26:00,79.3,36.0,29.35,NNE,22,5.8,5.8,21,0.00,CLR,OVC,0.00,WeatherDisplay:10.37,2013-09-29 05:26:00,
2013-09-29 15:31:00,79.0,35.7,29.32,NNE,22,4.6,4.6,21,0.00,CLR,OVC,0.00,WeatherDisplay:10.37,2013-09-29 05:31:00,
2013-09-29 15:36:00,78.8,35.5,29.32,NE,45,4.6,4.6,21,0.00,CLR,OVC,0.00,WeatherDisplay:10.37,2013-09-29 05:36:00,
2013-09-29 15:41:00,78.3,35.1,29.32,NE,45,5.8,5.8,21,0.00,CLR,OVC,0.00,WeatherDisplay:10.37,2013-09-29 05:41:00,
2013-09-29 15:46:00,78.1,35.0,29.32,NE,45,5.4,5.4,21,0.00,CLR,OVC,0.00,WeatherDisplay:10.37,2013-09-29 05:46:00,
2013-09-29 15:51:00,78.1,35.0,29.32,NE,45,4.6,4.6,21,0.00,CLR,OVC,0.00,WeatherDisplay:10.37,2013-09-29 05:51:00,
2013-09-29 15:56:00,77.7,34.7,29.32,ESE,112,4.6,4.7,21,0.00,CLR,OVC,0.00,WeatherDisplay:10.37,2013-09-29 05:56:00,
2013-09-29 16:02:00,77.4,34.4,29.32,ESE,112,3.5,4.5,21,0.00,CLR,OVC,0.00,WeatherDisplay:10.37,2013-09-29 06:02:00,
2013-09-29 16:07:00,77.4,34.4,29.32,ESE,112,4.3,4.3,21,0.00,CLR,OVC,0.00,WeatherDisplay:10.37,2013-09-29 06:07:00,
2013-09-29 16:12:00,76.6,34.9,29.32,ESE,112,6.9,6.9,22,0.00,CLR,OVC,0.00,WeatherDisplay:10.37,2013-09-29 06:12:00,
2013-09-29 16:17:00,75.9,35.4,29.32,ENE,68,4.0,4.0,23,0.00,CLR,OVC,0.00,WeatherDisplay:10.37,2013-09-29 06:17:00,
2013-09-29 16:22:00,75.4,36.1,29.32,East,90,9.2,9.2,24,0.00,CLR,OVC,0.00,WeatherDisplay:10.37,2013-09-29 06:22:00,
2013-09-29 16:27:00,74.8,36.6,29.32,ENE,68,5.8,5.8,25,0.00,CLR,OVC,0.00,WeatherDisplay:10.37,2013-09-29 06:27:00,
2013-09-29 16:32:00,74.5,36.3,29.32,SE,135,6.9,6.9,25,0.00,CLR,OVC,0.00,WeatherDisplay:10.37,2013-09-29 06:32:00,
2013-09-29 16:37:00,73.9,36.9,29.32,ESE,112,5.8,5.8,26,0.00,CLR,OVC,0.00,WeatherDisplay:10.37,2013-09-29 06:37:00,
2013-09-29 16:42:00,73.8,37.7,29.32,SE,135,8.1,8.1,27,0.00,CLR,OVC,0.00,WeatherDisplay:10.37,2013-09-29 06:42:00,
2013-09-29 16:47:00,73.4,37.4,29.32,SE,135,6.9,6.9,27,0.00,CLR,OVC,0.00,WeatherDisplay:10.37,2013-09-29 06:47:00,
2013-09-29 16:52:00,73.0,38.0,29.32,East,90,3.6,3.6,28,0.00,CLR,OVC,0.00,WeatherDisplay:10.37,2013-09-29 06:52:00,
2013-09-29 16:57:00,72.9,38.7,29.32,East,90,4.9,6.7,29,0.00,CLR,OVC,0.00,WeatherDisplay:10.37,2013-09-29 06:57:00,
2013-09-29 17:02:00,72.5,39.3,29.32,ESE,112,4.7,6.2,30,0.00,CLR,OVC,0.00,WeatherDisplay:10.37,2013-09-29 07:02:00,
2013-09-29 17:07:00,72.3,40.0,29.32,ENE,68,5.8,5.8,31,0.00,CLR,OVC,0.00,WeatherDisplay:10.37,2013-09-29 07:07:00,
2013-09-29 17:12:00,72.0,39.7,29.32,ESE,112,3.8,3.8,31,0.00,CLR,OVC,0.00,WeatherDisplay:10.37,2013-09-29 07:12:00,
2013-09-29 17:17:00,71.8,39.5,29.35,SE,135,5.8,5.8,31,0.00,CLR,OVC,0.00,WeatherDisplay:10.37,2013-09-29 07:17:00,
2013-09-29 17:22:00,71.6,40.2,29.35,ENE,68,4.6,4.6,32,0.00,CLR,OVC,0.00,WeatherDisplay:10.37,2013-09-29 07:22:00,
2013-09-29 17:27:00,71.4,40.0,29.35,ESE,112,3.6,6.7,32,0.00,CLR,OVC,0.00,WeatherDisplay:10.37,2013-09-29 07:27:00,
2013-09-29 17:32:00,71.2,39.9,29.35,SE,135,6.7,6.7,32,0.00,CLR,OVC,0.00,WeatherDisplay:10.37,2013-09-29 07:32:00,
2013-09-29 17:37:00,70.9,39.5,29.35,SE,135,6.4,6.4,32,0.00,CLR,OVC,0.00,WeatherDisplay:10.37,2013-09-29 07:37:00,
2013-09-29 17:42:00,70.7,39.4,29.35,ENE,68,5.8,5.8,32,0.00,CLR,OVC,0.00,WeatherDisplay:10.37,2013-09-29 07:42:00,
2013-09-29 17:47:00,70.5,39.2,29.35,East,90,5.8,5.8,32,0.00,CLR,OVC,0.00,WeatherDisplay:10.37,2013-09-29 07:47:00,
2013-09-29 17:52:00,70.2,39.7,29.35,ESE,112,4.6,4.6,33,0.00,CLR,OVC,0.00,WeatherDisplay:10.37,2013-09-29 07:52:00,
2013-09-29 17:57:00,70.0,39.5,29.35,ENE,68,2.3,2.3,33,0.00,CLR,OVC,0.00,WeatherDisplay:10.37,2013-09-29 07:57:00,
2013-09-29 18:02:00,69.8,39.4,29.38,ESE,112,3.3,3.3,33,0.00,CLR,OVC,0.00,WeatherDisplay:10.37,2013-09-29 08:02:00,
2013-09-29 18:07:00,69.4,39.8,29.38,ENE,68,2.4,2.4,34,0.00,CLR,OVC,0.00,WeatherDisplay:10.37,2013-09-29 08:07:00,
2013-09-29 18:12:00,69.1,40.3,29.38,East,90,3.5,3.5,35,0.00,CLR,OVC,0.00,WeatherDisplay:10.37,2013-09-29 08:12:00,
2013-09-29 18:17:00,68.5,40.5,29.38,East,90,3.5,3.5,36,0.00,CLR,OVC,0.00,WeatherDisplay:10.37,2013-09-29 08:17:00,
2013-09-29 18:22:00,68.2,40.2,29.38,ESE,112,4.6,4.6,36,0.00,CLR,OVC,0.00,WeatherDisplay:10.37,2013-09-29 08:22:00,
2013-09-29 18:27:00,68.0,40.0,29.38,NNE,22,2.4,2.4,36,0.00,CLR,OVC,0.00,WeatherDisplay:10.37,2013-09-29 08:27:00,
2013-09-29 18:32:00,67.8,40.6,29.38,SE,135,2.4,2.4,37,0.00,CLR,OVC,0.00,WeatherDisplay:10.37,2013-09-29 08:32:00,
2013-09-29 18:37:00,67.6,40.4,29.38,ESE,112,3.3,3.3,37,0.00,CLR,OVC,0.00,WeatherDisplay:10.37,2013-09-29 08:37:00,
2013-09-29 18:42:00,67.3,40.8,29.38,East,90,3.5,3.5,38,0.00,CLR,OVC,0.00,WeatherDisplay:10.37,2013-09-29 08:42:00,
2013-09-29 18:47:00,66.9,40.5,29.41,East,90,2.4,2.4,38,0.00,CLR,OVC,0.00,WeatherDisplay:10.37,2013-09-29 08:47:00,
2013-09-29 18:52:00,66.7,40.3,29.41,East,90,3.5,3.5,38,0.00,CLR,OVC,0.00,WeatherDisplay:10.37,2013-09-29 08:52:00,
2013-09-29 18:57:00,66.4,40.0,29.41,ENE,68,3.5,3.5,38,0.00,CLR,OVC,0.00,WeatherDisplay:10.37,2013-09-29 08:57:00,
2013-09-29 19:02:00,66.2,39.8,29.44,ESE,112,2.6,2.6,38,0.00,CLR,OVC,0.00,WeatherDisplay:10.37,2013-09-29 09:02:00,
2013-09-29 19:07:00,66.0,40.3,29.44,NE,45,2.3,2.6,39,0.00,CLR,OVC,0.00,WeatherDisplay:10.37,2013-09-29 09:07:00,
2013-09-29 19:12:00,65.8,40.8,29.44,NE,45,3.5,3.5,40,0.00,CLR,OVC,0.00,WeatherDisplay:10.37,2013-09-29 09:12:00,
2013-09-29 19:17:00,65.7,40.7,29.44,NNE,22,2.4,2.4,40,0.00,CLR,OVC,0.00,WeatherDisplay:10.37,2013-09-29 09:17:00,
2013-09-29 19:22:00,65.3,41.0,29.44,NE,45,2.3,2.3,41,0.00,CLR,OVC,0.00,WeatherDisplay:10.37,2013-09-29 09:22:00,
2013-09-29 19:27:00,65.3,41.0,29.44,NE,45,1.4,1.4,41,0.00,CLR,OVC,0.00,WeatherDisplay:10.37,2013-09-29 09:27:00,
2013-09-29 19:32:00,65.1,41.4,29.44,East,90,4.6,4.6,42,0.00,CLR,OVC,0.00,WeatherDisplay:10.37,2013-09-29 09:32:00,
2013-09-29 19:37:00,64.9,41.9,29.44,NNE,22,2.4,2.4,43,0.00,CLR,OVC,0.00,WeatherDisplay:10.37,2013-09-29 09:37:00,
2013-09-29 19:42:00,64.8,41.7,29.44,NE,45,2.4,2.6,43,0.00,CLR,OVC,0.00,WeatherDisplay:10.37,2013-09-29 09:42:00,
2013-09-29 19:47:00,64.6,41.6,29.44,ESE,112,2.3,2.3,43,0.00,CLR,OVC,0.00,WeatherDisplay:10.37,2013-09-29 09:47:00,
2013-09-29 19:52:00,64.4,42.0,29.44,ENE,68,2.3,2.3,44,0.00,CLR,OVC,0.00,WeatherDisplay:10.37,2013-09-29 09:52:00,
2013-09-29 19:57:00,64.4,42.0,29.44,NE,45,3.5,3.5,44,0.00,CLR,OVC,0.00,WeatherDisplay:10.37,2013-09-29 09:57:00,
2013-09-29 20:02:00,64.2,42.4,29.44,ENE,68,2.3,2.3,45,0.00,CLR,OVC,0.00,WeatherDisplay:10.37,2013-09-29 10:02:00,
2013-09-29 20:07:00,64.2,42.4,29.44,SSE,158,3.5,3.5,45,0.00,CLR,OVC,0.00,WeatherDisplay:10.37,2013-09-29 10:07:00,
2013-09-29 20:13:00,64.0,42.3,29.47,SE,135,2.9,2.9,45,0.00,CLR,OVC,0.00,WeatherDisplay:10.37,2013-09-29 10:13:00,
2013-09-29 20:18:00,63.7,41.9,29.47,ENE,68,3.5,3.5,45,0.00,CLR,OVC,0.00,WeatherDisplay:10.37,2013-09-29 10:18:00,
2013-09-29 20:23:00,63.7,42.5,29.47,ENE,68,4.6,4.6,46,0.00,CLR,OVC,0.00,WeatherDisplay:10.37,2013-09-29 10:23:00,
2013-09-29 20:28:00,63.5,42.9,29.47,NE,45,2.4,2.4,47,0.00,CLR,OVC,0.00,WeatherDisplay:10.37,2013-09-29 10:28:00,
2013-09-29 20:33:00,63.5,42.9,29.47,ENE,68,3.5,3.5,47,0.00,CLR,OVC,0.00,WeatherDisplay:10.37,2013-09-29 10:33:00,
2013-09-29 20:38:00,63.5,42.9,29.47,ESE,112,2.3,2.3,47,0.00,CLR,OVC,0.00,WeatherDisplay:10.37,2013-09-29 10:38:00,
2013-09-29 20:43:00,63.3,42.7,29.47,ESE,112,2.3,2.3,47,0.00,CLR,OVC,0.00,WeatherDisplay:10.37,2013-09-29 10:43:00,
2013-09-29 20:48:00,63.3,43.3,29.47,ENE,68,2.3,2.3,48,0.00,CLR,OVC,0.00,WeatherDisplay:10.37,2013-09-29 10:48:00,
2013-09-29 20:53:00,63.1,43.1,29.47,ESE,112,1.6,1.6,48,0.00,CLR,OVC,0.00,WeatherDisplay:10.37,2013-09-29 10:53:00,
2013-09-29 20:58:00,63.0,43.0,29.47,ENE,68,2.4,2.4,48,0.00,CLR,OVC,0.00,WeatherDisplay:10.37,2013-09-29 10:58:00,
2013-09-29 21:03:00,62.8,42.8,29.47,ESE,112,2.3,2.3,48,0.00,CLR,OVC,0.00,WeatherDisplay:10.37,2013-09-29 11:03:00,
2013-09-29 21:08:00,62.6,42.6,29.47,ESE,112,3.5,3.5,48,0.00,CLR,OVC,0.00,WeatherDisplay:10.37,2013-09-29 11:08:00,
2013-09-29 21:13:00,62.4,42.5,29.47,SE,135,2.9,2.9,48,0.00,CLR,OVC,0.00,WeatherDisplay:10.37,2013-09-29 11:13:00,
2013-09-29 21:18:00,62.2,42.8,29.47,East,90,2.3,2.3,49,0.00,CLR,OVC,0.00,WeatherDisplay:10.37,2013-09-29 11:18:00,
2013-09-29 21:23:00,62.1,42.7,29.47,East,90,2.3,2.4,49,0.00,CLR,OVC,0.00,WeatherDisplay:10.37,2013-09-29 11:23:00,
2013-09-29 21:28:00,61.9,42.5,29.47,ESE,112,2.3,2.3,49,0.00,CLR,OVC,0.00,WeatherDisplay:10.37,2013-09-29 11:28:00,
2013-09-29 21:33:00,61.9,43.0,29.47,SSW,202,2.3,2.3,50,0.00,CLR,OVC,0.00,WeatherDisplay:10.37,2013-09-29 11:33:00,
2013-09-29 21:38:00,61.7,42.9,29.47,SE,135,3.5,3.5,50,0.00,CLR,OVC,0.00,WeatherDisplay:10.37,2013-09-29 11:38:00,
2013-09-29 21:43:00,61.3,42.5,29.47,SE,135,2.4,2.4,50,0.00,CLR,OVC,0.00,WeatherDisplay:10.37,2013-09-29 11:43:00,
2013-09-29 21:48:00,61.3,42.5,29.47,SE,135,2.4,2.4,50,0.00,CLR,OVC,0.00,WeatherDisplay:10.37,2013-09-29 11:48:00,
2013-09-29 21:53:00,61.0,42.2,29.47,South,180,3.5,3.5,50,0.00,CLR,OVC,0.00,WeatherDisplay:10.37,2013-09-29 11:53:00,
2013-09-29 21:58:00,61.0,42.7,29.47,East,90,2.3,2.3,51,0.00,CLR,OVC,0.00,WeatherDisplay:10.37,2013-09-29 11:58:00,
2013-09-29 22:03:00,60.8,43.1,29.47,ESE,112,2.4,2.4,52,0.00,CLR,OVC,0.00,WeatherDisplay:10.37,2013-09-29 12:03:00,
2013-09-29 22:08:00,60.4,42.7,29.47,SE,135,2.3,2.4,52,0.00,CLR,OVC,0.00,WeatherDisplay:10.37,2013-09-29 12:08:00,
2013-09-29 22:13:00,60.4,42.7,29.50,SE,135,2.3,2.3,52,0.00,CLR,OVC,0.00,WeatherDisplay:10.37,2013-09-29 12:13:00,
2013-09-29 22:18:00,60.3,42.6,29.50,SE,135,0.0,0.0,52,0.00,CLR,OVC,0.00,WeatherDisplay:10.37,2013-09-29 12:18:00,
2013-09-29 22:23:00,60.1,42.9,29.50,NE,45,0.0,0.0,53,0.00,CLR,OVC,0.00,WeatherDisplay:10.37,2013-09-29 12:23:00,
2013-09-29 22:28:00,59.9,42.7,29.47,ENE,68,0.0,0.0,53,0.00,CLR,OVC,0.00,WeatherDisplay:10.37,2013-09-29 12:28:00,
2013-09-29 22:33:00,59.7,42.6,29.47,NE,45,0.0,0.0,53,0.00,CLR,OVC,0.00,WeatherDisplay:10.37,2013-09-29 12:33:00,
2013-09-29 22:38:00,59.5,41.9,29.47,West,270,0.0,0.0,52,0.00,CLR,OVC,0.00,WeatherDisplay:10.37,2013-09-29 12:38:00,
2013-09-29 22:43:00,59.4,42.2,29.50,South,180,0.0,0.0,53,0.00,CLR,OVC,0.00,WeatherDisplay:10.37,2013-09-29 12:43:00,
2013-09-29 22:48:00,59.2,42.0,29.50,WSW,248,0.0,0.0,53,0.00,CLR,OVC,0.00,WeatherDisplay:10.37,2013-09-29 12:48:00,
2013-09-29 22:53:00,59.0,41.9,29.50,West,270,0.0,0.0,53,0.00,CLR,OVC,0.00,WeatherDisplay:10.37,2013-09-29 12:53:00,
2013-09-29 22:58:00,58.8,42.2,29.50,South,180,0.0,0.0,54,0.00,CLR,OVC,0.00,WeatherDisplay:10.37,2013-09-29 12:58:00,
2013-09-29 23:03:00,58.6,42.0,29.50,ESE,112,0.0,0.0,54,0.00,CLR,OVC,0.00,WeatherDisplay:10.37,2013-09-29 13:03:00,
2013-09-29 23:08:00,58.5,41.9,29.50,SE,135,0.0,0.0,54,0.00,CLR,OVC,0.00,WeatherDisplay:10.37,2013-09-29 13:08:00,
2013-09-29 23:13:00,58.3,41.7,29.50,SE,135,0.0,0.0,54,0.00,CLR,OVC,0.00,WeatherDisplay:10.37,2013-09-29 13:13:00,
2013-09-29 23:18:00,58.1,42.0,29.50,SE,135,0.0,0.0,55,0.00,CLR,OVC,0.00,WeatherDisplay:10.37,2013-09-29 13:18:00,
2013-09-29 23:23:00,57.9,41.8,29.50,SSE,158,0.0,0.0,55,0.00,CLR,OVC,0.00,WeatherDisplay:10.37,2013-09-29 13:23:00,
2013-09-29 23:28:00,57.7,41.7,29.50,SSE,158,0.0,0.0,55,0.00,CLR,OVC,0.00,WeatherDisplay:10.37,2013-09-29 13:28:00,
2013-09-29 23:33:00,57.7,41.7,29.50,SSE,158,0.0,0.0,55,0.00,CLR,OVC,0.00,WeatherDisplay:10.37,2013-09-29 13:33:00,
2013-09-29 23:39:00,57.6,42.0,29.50,East,90,0.0,0.0,56,0.00,CLR,OVC,0.00,WeatherDisplay:10.37,2013-09-29 13:39:00,
2013-09-29 23:44:00,57.6,42.0,29.50,ESE,112,0.0,0.0,56,0.00,CLR,OVC,0.00,WeatherDisplay:10.37,2013-09-29 13:44:00,
2013-09-29 23:49:00,57.4,42.3,29.50,SE,135,0.0,0.0,57,0.00,CLR,OVC,0.00,WeatherDisplay:10.37,2013-09-29 13:49:00,
2013-09-29 23:54:00,57.2,41.6,29.50,SE,135,0.0,0.0,56,0.00,CLR,OVC,0.00,WeatherDisplay:10.37,2013-09-29 13:54:00,
2013-09-29 23:59:00,57.0,41.9,29.50,SSE,158,0.0,0.0,57,0.00,CLR,OVC,0.00,WeatherDisplay:10.37,2013-09-29 13:59:00,